Location: Enborne
(51.3833°N, 1.3667°W)
Time: 15:17:18
(UTC+00:00)

NOSS 2-2 (C) - Pass Details

Date: 25 January 2021
Orbit: 463 x 1745 km, 63.3° (Epoch: 03 March)

Event Time Altitude Azimuth Distance (km) Brightness Sun altitude
Rises 19:36:31 0° 315° (NW) 2,966 7.7 -26.7°
Reaches altitude 10° 19:38:33 10° 319° (NW) 2,184 6.9 -27.1°
Enters shadow 19:42:57 61° 9° (N) 969 4.4 -27.7°
